Flight Track Log - Related Links

Times and Time Zones

All times are in EDT time to prevent confusion due to time zone crossing. See the N2156N flight status page for this flight to view local times or setup timezone preferences in your user account.

Time Position Orientation Groundspeed Altitude Reporting Facility
EDT Latitude Longitude Course Direction KTS MPH feet Rate Location/Type
Thu 11:49:00 AM 40.7274 -116.0553 244° Southwest  Level Estimated
Thu 11:50:00 AM 40.7111 -116.0992 244° Southwest  Level Estimated
Thu 11:51:00 AM 40.6948 -116.1430 244° Southwest  Level Estimated
Thu 11:52:00 AM 40.6785 -116.1869 244° Southwest  Level Estimated
Thu 11:53:00 AM 40.6621 -116.2307 244° Southwest  Level Estimated
Thu 11:54:00 AM 40.6457 -116.2744 244° Southwest  Level Estimated
Thu 11:55:00 AM 40.6293 -116.3182 244° Southwest  Level Estimated
Thu 11:56:00 AM 40.6129 -116.3619 244° Southwest  Level Estimated
Thu 11:57:00 AM 40.5965 -116.4056 244° Southwest  Level Estimated
Thu 11:58:00 AM 40.5801 -116.4493 244° Southwest  Level Estimated
Thu 11:59:00 AM 40.5636 -116.4930 244° Southwest  Level Estimated
Thu 11:59:13 AM 40.8050 -115.8633 243° Southwest 99 114 6,400  Level Oakland Center
Thu 12:00:00 PM 40.5471 -116.5367 244° Southwest  Level Estimated
Thu 12:00:14 PM 40.7989 -115.9000 258° West 93 107 7,000  Level Oakland Center
Thu 12:01:00 PM 40.5307 -116.5803 244° Southwest  Level Estimated
Thu 12:01:16 PM 40.7933 -115.9322 257° West 92 106 7,400  Level Oakland Center
Thu 12:02:00 PM 40.5141 -116.6239 244° Southwest  Level Estimated
Thu 12:02:18 PM 40.7856 -115.9708 255° West 95 109 8,000  Level Oakland Center
Thu 12:03:00 PM 40.4976 -116.6675 244° Southwest  Level Estimated
Thu 12:03:23 PM 40.7808 -116.0056 260° West 101 116 8,400  Level Salt Lake Center
Thu 12:04:00 PM 40.4811 -116.7110 243° Southwest  Level Estimated
Thu 12:04:25 PM 40.7731 -116.0483 257° West 105 121 8,900  Level Salt Lake Center
Thu 12:05:27 PM 40.7647 -116.0864 254° West 109 125 9,300 435 Climbing Salt Lake Center
Thu 12:06:29 PM 40.7544 -116.1311 253° West 112 129 9,800 484 Climbing Salt Lake Center
Thu 12:07:31 PM 40.7464 -116.1692 254° West 113 130 10,300 484 Climbing Salt Lake Center
Thu 12:08:33 PM 40.7367 -116.2114 253° West 111 128 10,800 435 Climbing Salt Lake Center
Thu 12:09:35 PM 40.7278 -116.2483 252° West 110 127 11,200 387 Climbing Salt Lake Center
Thu 12:10:37 PM 40.7164 -116.2925 251° West 112 129 11,600 339 Climbing Salt Lake Center
Thu 12:11:39 PM 40.7067 -116.3322 252° West 115 132 11,900 194 Climbing Salt Lake Center
Thu 12:12:41 PM 40.6950 -116.3833 253° West 123 142 12,000 48 Climbing Salt Lake Center
Thu 12:13:43 PM 40.6847 -116.4317 254° West 133 153 12,000  Level Salt Lake Center
Thu 12:14:45 PM 40.6714 -116.4864 252° West 139 160 12,000  Level Salt Lake Center
Thu 12:15:47 PM 40.6581 -116.5333 249° West 141 162 12,000  Level Salt Lake Center
Thu 12:16:49 PM 40.6442 -116.5897 252° West 143 165 12,000  Level Salt Lake Center
Thu 12:17:51 PM 40.6347 -116.6381 256° West 144 166 12,000  Level Salt Lake Center
Thu 12:18:53 PM 40.6278 -116.6861 259° West 142 163 12,000  Level Salt Lake Center
Thu 12:19:56 PM 40.6156 -116.7411 254° West 141 162 12,000  Level Salt Lake Center
Thu 12:20:58 PM 40.6039 -116.7861 251° West 138 159 12,000  Level Salt Lake Center
Thu 12:22:00 PM 40.5919 -116.8375 253° West 134 154 12,000  Level Salt Lake Center
Thu 12:23:02 PM 40.5811 -116.8836 253° West 136 157 12,000  Level Salt Lake Center
Thu 12:24:04 PM 40.5675 -116.9389 252° West 140 161 12,000  Level Salt Lake Center
Thu 12:25:06 PM 40.5547 -116.9867 251° West 143 165 12,000  Level Salt Lake Center
Thu 12:26:08 PM 40.5400 -117.0417 251° West 144 166 12,000  Level Salt Lake Center
Thu 12:27:10 PM 40.5275 -117.0894 251° West 144 166 12,000  Level Salt Lake Center
Thu 12:28:12 PM 40.5114 -117.1450 249° West 146 168 12,000  Level Salt Lake Center
Thu 12:29:14 PM 40.4975 -117.1939 250° West 148 170 12,000  Level Salt Lake Center
Thu 12:30:16 PM 40.4811 -117.2494 249° West 147 169 12,000  Level Salt Lake Center
Thu 12:31:18 PM 40.4678 -117.2961 249° West 145 167 12,000  Level Salt Lake Center
Thu 12:32:20 PM 40.4539 -117.3514 252° West 144 166 12,000  Level Salt Lake Center
Thu 12:33:22 PM 40.4422 -117.3997 252° West 144 166 12,000  Level Salt Lake Center
Thu 12:34:24 PM 40.4281 -117.4567 252° West 146 168 12,000 48 Level Salt Lake Center
Thu 12:35:26 PM 40.4156 -117.5103 253° West 145 167 12,100  Climbing Salt Lake Center
Thu 12:36:28 PM 40.4014 -117.5631 251° West 147 169 12,000 -48 Descending Salt Lake Center
Thu 12:37:30 PM 40.3878 -117.6119 250° West 149 171 12,000  Level Salt Lake Center
Thu 12:38:32 PM 40.3722 -117.6683 250° West 148 170 12,000  Level Salt Lake Center
Thu 12:39:35 PM 40.3594 -117.7161 251° West 146 168 12,000  Level Salt Lake Center
Thu 12:40:37 PM 40.3419 -117.7686 246° West 142 163 12,000  Level Salt Lake Center
Thu 12:41:39 PM 40.3286 -117.8161 250° West 144 166 12,000 48 Level Salt Lake Center
Thu 12:42:41 PM 40.3189 -117.8728 257° West 143 165 12,100 57 Climbing Salt Lake Center
Thu 12:43:24 PM 40.3144 -117.9022 259° West 141 162 12,100  Level Oakland Center
Thu 12:44:26 PM 40.3031 -117.9500 253° West 142 163 12,100  Level Oakland Center
Thu 12:45:27 PM 40.2850 -118.0017 245° Southwest 141 162 12,100  Level Oakland Center
Thu 12:46:29 PM 40.2711 -118.0500 249° West 144 166 12,100  Level Oakland Center
Thu 12:47:31 PM 40.2558 -118.0972 247° West 141 162 12,100  Level Oakland Center
Thu 12:48:32 PM 40.2406 -118.1444 247° West 141 162 12,100  Level Oakland Center
Thu 12:49:34 PM 40.2250 -118.2028 251° West 143 165 12,100  Level Oakland Center
Thu 12:50:36 PM 40.2128 -118.2517 252° West 142 163 12,100  Level Oakland Center
Thu 12:51:37 PM 40.2031 -118.3014 256° West 141 162 12,100  Level Oakland Center
Thu 12:52:39 PM 40.1908 -118.3503 252° West 142 163 12,100  Level Oakland Center
Thu 12:53:40 PM 40.1781 -118.3961 250° West 137 158 12,100  Level Oakland Center
Thu 12:54:42 PM 40.1642 -118.4447 250° West 141 162 12,100  Level Oakland Center
Thu 12:55:44 PM 40.1514 -118.4931 251° West 141 162 12,100  Level Oakland Center
Thu 12:56:45 PM 40.1381 -118.5383 249° West 136 157 12,100  Level Oakland Center
Thu 12:57:47 PM 40.1200 -118.5956 248° West 141 162 12,100  Level Oakland Center
Thu 12:58:48 PM 40.0967 -118.6336 231° Southwest 136 157 12,100  Level Oakland Center
Thu 12:59:50 PM 40.0739 -118.6711 232° Southwest 133 153 12,100  Level Oakland Center
Thu 01:00:52 PM 40.0511 -118.7092 232° Southwest 133 153 12,100  Level Oakland Center
Thu 01:01:53 PM 40.0303 -118.7483 235° Southwest 132 152 12,100  Level Oakland Center
Thu 01:02:55 PM 40.0117 -118.7911 240° Southwest 134 154 12,100  Level Oakland Center
Thu 01:03:56 PM 39.9917 -118.8317 237° Southwest 134 154 12,100  Level Oakland Center
Thu 01:04:58 PM 39.9661 -118.8778 234° Southwest 132 152 12,100  Level Oakland Center
Thu 01:06:00 PM 39.9433 -118.9153 232° Southwest 132 152 12,100  Level Oakland Center
Thu 01:07:01 PM 39.9208 -118.9539 233° Southwest 134 154 12,100  Level Oakland Center
Thu 01:08:03 PM 39.8989 -118.9919 233° Southwest 132 152 12,100  Level Oakland Center
Thu 01:09:04 PM 39.8772 -119.0308 234° Southwest 133 153 12,100  Level Oakland Center
Thu 01:10:06 PM 39.8578 -119.0714 238° Southwest 133 153 12,100  Level Oakland Center
Thu 01:11:08 PM 39.8381 -119.1119 238° Southwest 133 153 12,100  Level Oakland Center
Thu 01:12:09 PM 39.8194 -119.1531 239° Southwest 132 152 12,100  Level Oakland Center
Thu 01:13:11 PM 39.7919 -119.1978 231° Southwest 132 152 12,100 -48 Level Oakland Center
Thu 01:14:13 PM 39.7675 -119.2331 228° Southwest 132 152 12,000 -49 Descending Oakland Center
Thu 01:15:14 PM 39.7431 -119.2689 228° Southwest 133 153 12,000  Level Oakland Center
Thu 01:16:16 PM 39.7222 -119.3086 236° Southwest 133 153 12,000  Level Oakland Center
Thu 01:17:18 PM 39.7039 -119.3511 241° Southwest 135 155 12,000  Level Oakland Center
Thu 01:18:19 PM 39.6842 -119.3914 238° Southwest 134 154 12,000  Level Oakland Center
Thu 01:19:21 PM 39.6636 -119.4317 236° Southwest 134 154 12,000  Level Oakland Center
Thu 01:20:22 PM 39.6358 -119.4789 233° Southwest 136 157 12,000  Level Oakland Center
Thu 01:21:24 PM 39.6125 -119.5153 230° Southwest 134 154 12,000  Level Oakland Center
Thu 01:22:26 PM 39.5883 -119.5525 230° Southwest 134 154 12,000  Level Oakland Center
Thu 01:23:27 PM 39.5669 -119.5931 236° Southwest 135 155 12,000  Level Oakland Center
Thu 01:24:06 PM 39.5500 -119.6333 241° Southwest 134 154 12,000  Level Northern Cal TRACON
Thu 01:25:06 PM 39.5333 -119.6667 237° Southwest 133 153 12,000  Level Northern Cal TRACON
Thu 01:26:06 PM 39.5167 -119.7000 237° Southwest 133 153 12,000  Level Northern Cal TRACON
Thu 01:27:06 PM 39.4833 -119.7500 229° Southwest 151 174 12,000  Level Northern Cal TRACON
Thu 01:28:06 PM 39.4667 -119.7833 237° Southwest 156 180 12,000  Level Northern Cal TRACON
Thu 01:29:01 PM 39.4500 -119.8167 237° Southwest 132 152 12,000 52 Level Northern Cal TRACON
Thu 01:30:01 PM 39.4167 -119.8500 218° Southwest 132 152 12,100 122 Climbing Northern Cal TRACON
Thu 01:30:39 PM 39.4056 -119.8772 242° Southwest 135 155 12,200 300 Climbing Oakland Center
Thu 01:31:41 PM 39.3842 -119.9122 232° Southwest 131 151 12,600 339 Climbing Oakland Center
Thu 01:32:43 PM 39.3661 -119.9492 238° Southwest 125 144 12,900 194 Climbing Oakland Center
Thu 01:33:45 PM 39.3500 -119.9875 241° Southwest 121 139 13,000 49 Climbing Oakland Center
Thu 01:34:46 PM 39.3292 -120.0289 237° Southwest 132 152 13,000  Level Oakland Center
Thu 01:35:48 PM 39.2986 -120.0739 229° Southwest 136 157 13,000  Level Oakland Center
Thu 01:36:50 PM 39.2733 -120.1111 229° Southwest 137 158 13,000  Level Oakland Center
Thu 01:37:51 PM 39.2547 -120.1456 235° Southwest 136 157 13,000 -146 Level Oakland Center
Thu 01:38:53 PM 39.2233 -120.1947 231° Southwest 145 167 12,700 -387 Descending Oakland Center
Thu 01:39:55 PM 39.2003 -120.2383 236° Southwest 148 170 12,200 -390 Descending Oakland Center
Thu 01:40:56 PM 39.1750 -120.2833 234° Southwest 153 176 11,900 -195 Descending Oakland Center
Thu 01:41:58 PM 39.1536 -120.3272 238° Southwest 147 169 11,800 -48 Descending Oakland Center
Thu 01:43:00 PM 39.1333 -120.3703 239° Southwest 142 163 11,800  Level Oakland Center
Thu 01:44:01 PM 39.1114 -120.4092 234° Southwest 135 155 11,800 49 Level Oakland Center
Thu 01:45:03 PM 39.0881 -120.4450 230° Southwest 132 152 11,900 48 Climbing Oakland Center
Thu 01:46:05 PM 39.0633 -120.4808 228° Southwest 133 153 11,900  Level Oakland Center
Thu 01:47:06 PM 39.0397 -120.5350 241° Southwest 143 165 11,900  Level Oakland Center
Thu 01:48:08 PM 39.0203 -120.5792 240° Southwest 144 166 11,900 -145 Level Oakland Center
Thu 01:49:10 PM 38.9981 -120.6236 237° Southwest 148 170 11,600 -341 Descending Oakland Center
Thu 01:50:11 PM 38.9714 -120.6653 231° Southwest 151 174 11,200 -390 Descending Oakland Center
Thu 01:51:13 PM 38.9422 -120.7075 228° Southwest 158 182 10,800 -435 Descending Oakland Center
Thu 01:52:15 PM 38.9178 -120.7506 234° Southwest 152 175 10,300 -585 Descending Oakland Center
Thu 01:53:16 PM 38.8942 -120.7989 238° Southwest 159 183 9,600 -732 Descending Oakland Center
Thu 01:54:18 PM 38.8672 -120.8561 239° Southwest 157 181 8,800 -726 Descending Oakland Center
Thu 01:55:20 PM 38.8419 -120.9011 234° Southwest 157 181 8,100 -683 Descending Oakland Center
Thu 01:56:21 PM 38.8181 -120.9461 236° Southwest 154 177 7,400 -732 Descending Oakland Center
Thu 01:57:23 PM 38.7894 -120.9883 229° Southwest 156 180 6,600 -683 Descending Oakland Center
Thu 01:58:24 PM 38.7622 -121.0286 229° Southwest 151 174 6,000 -585 Descending Oakland Center
Thu 01:59:26 PM 38.7367 -121.0717 233° Southwest 151 174 5,400 -532 Descending Oakland Center
Thu 02:00:28 PM 38.7183 -121.1194 244° Southwest 151 174 4,900 -471 Descending Oakland Center
Thu 02:01:08 PM 38.7000 -121.1500 232° Southwest 141 162 4,600 -364 Descending Northern Cal TRACON
Thu 02:02:07 PM 38.6833 -121.2000 247° West 141 162 4,300 -303 Descending Northern Cal TRACON
Thu 02:03:07 PM 38.6500 -121.2333 218° Southwest 142 163 4,000 -365 Descending Northern Cal TRACON
Thu 02:04:02 PM 38.6333 -121.2667 237° Southwest 145 167 3,600 -414 Descending Northern Cal TRACON
Thu 02:04:34 PM 38.6181 -121.2825 219° Southwest 142 163 3,400 -574 Descending Oakland Center
Thu 02:05:36 PM 38.5875 -121.3142 219° Southwest 150 173 2,700 -732 Descending Oakland Center
Thu 02:06:37 PM 38.5653 -121.3725 244° Southwest 156 180 1,900 -585 Descending Oakland Center
Thu 02:07:39 PM 38.5575 -121.4194 258° West 143 165 1,500 -439 Descending Oakland Center
Thu 02:08:40 PM 38.5472 -121.4653 254° West 135 155 1,000 -585 Descending Oakland Center
Thu 02:09:42 PM 38.5283 -121.4847 219° Southwest 99 114 300 -435 Descending Oakland Center
Thu 02:10:44 PM 38.5067 -121.4989 207° Southwest 94 108 100 -194 Descending Oakland Center
Thu 02:12:00 PM 38.5125 -121.4935 119° Southeast  Level Estimated
Thu 02:19:00 PM 38.5125 -121.4935 233° Southwest  Level Estimated

Login

Don't have an account? Register now (free) for customized features, flight alerts, and more!